Stations météo

réclame
Mon MeteoGroup
St.Peter-Ording, Allemagne (10028): Température de l'air & dewpoint: 16.10.2018 16:00:00 - 22.10.2018 16:00:00 (CEST)St.Peter-Ording, Allemagne (10028): Température de l'air 5cm & Température de l'air -5cm: 16.10.2018 16:00:00 - 22.10.2018 16:00:00 (CEST)St.Peter-Ording, Allemagne (10028): Température de l'air -20cm & Température de l'air -100cm: 16.10.2018 16:00:00 - 22.10.2018 16:00:00 (CEST)St.Peter-Ording, Allemagne (10028): Vitesse du vent & gusts: 16.10.2018 16:00:00 - 22.10.2018 16:00:00 (CEST)St.Peter-Ording, Allemagne (10028): Direction du vent: 16.10.2018 16:00:00 - 22.10.2018 16:00:00 (CEST)St.Peter-Ording, Allemagne (10028): reduced air pressure: 16.10.2018 16:00:00 - 22.10.2018 16:00:00 (CEST)St.Peter-Ording, Allemagne (10028): visibility: 16.10.2018 16:00:00 - 22.10.2018 16:00:00 (CEST)St.Peter-Ording, Allemagne (10028): Ensoleillement: 16.10.2018 16:00:00 - 22.10.2018 16:00:00 (CEST)St.Peter-Ording, Allemagne (10028): Quantités de précipitations: 16.10.2018 16:00:00 - 22.10.2018 16:00:00 (CEST)
Date & Time tt [°C] td [°C] tt 5cm [°C] tt -5cm [°C] tt -20cm [°C] tt -100cm [°C] ff [km/h] ff [knt] fx [km/h] fx [knt] dd ppp [hPa] vv [km] sd [min] rr [mm]
22.10.2018 16:00:00 11,6 4,6 11,9 15,2 13,6 13,8 36 19 50 27 NW 1030,5 29 31 0,0
22.10.2018 15:00:00 12,3 4,7 14,2 17,4 13,3 13,8 37 20 49 26 NW 1030,0 24 40 0,0
22.10.2018 14:00:00 12,6 3,8 15,0 17,3 12,9 13,8 31 17 48 26 NW 1030,2 10 54 0,0
22.10.2018 13:00:00 12,7 4,2 14,9 15,9 12,6 13,8 36 19 52 28 NW 1030,3 9 59 0,0
22.10.2018 12:00:00 12,5 4,3 13,9 14,0 12,4 13,8 37 20 50 27 NW 1029,9 9 56 0,0
22.10.2018 11:00:00 12,3 5,0 13,4 12,0 12,4 13,8 39 21 57 31 NNW 1029,5 15 41 0,0
22.10.2018 10:00:00 12,0 5,6 11,5 10,5 12,5 13,8 34 19 50 27 NNW 1028,8 16 46 0,0
22.10.2018 09:00:00 11,4 5,0 9,3 9,8 12,8 13,8 29 16 43 23 NNW 1028,2 39 3 0,0
22.10.2018 08:00:00 11,4 6,9 9,4 10,3 13,0 13,8 31 17 47 25 NNW 1027,2 36 0 0,0
22.10.2018 07:00:00 11,4 8,5 9,7 10,3 13,2 13,8 21 12 32 17 NNW 1026,4 44 0 0,0
22.10.2018 06:00:00 11,8 8,4 10,3 11,4 13,3 13,8 24 13 42 23 NNW 1025,8 40 0 0,0
22.10.2018 05:00:00 12,0 8,6 11,0 12,0 13,5 13,8 30 16 49 26 N 1025,2 37 0 0,0
22.10.2018 04:00:00 11,7 11,0 11,4 12,5 13,6 13,8 24 13 50 27 N 1024,8 33 0 0,2
22.10.2018 03:00:00 12,2 11,7 12,1 13,0 13,6 13,8 24 13 41 22 N 1024,4 3,1 0 0,0
22.10.2018 02:00:00 13,6 13,1 13,5 13,6 13,7 13,8 22 12 36 19 W 1023,8 4,0 0 0,0
22.10.2018 01:00:00 13,8 12,9 13,6 13,6 13,7 13,8 27 14 39 21 WSW 1023,8 2,5 0 0,0
22.10.2018 00:00:00 13,9 11,7 13,9 13,6 13,7 13,8 26 14 38 21 WSW 1023,8 4,7 0 0,0
21.10.2018 23:00:00 14,0 11,1 13,9 13,5 13,8 13,8 26 14 36 19 WSW 1023,8 6 0 0,0
21.10.2018 22:00:00 13,7 10,7 13,4 13,4 13,9 13,8 27 14 40 21 SW 1024,2 7 0 0,0
21.10.2018 21:00:00 13,8 10,6 13,7 13,8 14,0 13,8 26 14 35 19 SW 1024,5 7 0 0,0
21.10.2018 20:00:00 14,0 10,6 13,7 13,9 14,1 13,8 26 14 37 20 SW 1024,6 7 0 0,0
21.10.2018 19:00:00 13,9 11,0 13,6 14,1 14,1 13,8 26 14 34 19 SSW 1024,5 6 0 0,0
21.10.2018 18:00:00 14,1 11,2 14,2 15,1 14,1 13,8 26 14 35 19 SSW 1024,7 6 4 0,0
21.10.2018 17:00:00 14,2 11,5 14,3 16,2 14,0 13,8 24 13 34 19 SW 1025,0 5 55 0,0
21.10.2018 16:00:00 14,4 11,7 15,2 16,9 13,8 13,9 27 15 34 19 SW 1025,5 5 1 0,0
21.10.2018 15:00:00 14,1 12,0 15,2 16,4 13,5 13,9 23 12 34 18 SSW 1026,0 4,1 0 0,0
21.10.2018 14:00:00 14,1 12,1 15,1 16,5 13,2 13,9 23 12 33 18 SSW 1026,4 4,5 0 0,0
21.10.2018 13:00:00 14,1 12,2 15,2 16,0 12,9 13,9 23 12 32 18 SW 1026,7 4,5 0 0,0
21.10.2018 12:00:00 14,0 12,2 14,9 15,2 12,6 13,9 22 12 30 16 SW 1027,0 4,7 0 0,0
21.10.2018 11:00:00 14,0 12,4 14,9 14,3 12,5 13,9 21 12 28 15 SW 1027,1 5 0 0,0
21.10.2018 10:00:00 13,7 12,4 14,1 13,2 12,3 13,9 19 10 29 15 SW 1027,2 4,9 0 0,0
21.10.2018 09:00:00 13,3 12,2 13,1 12,4 12,3 13,9 19 10 27 14 WSW 1027,2 3,9 0 0,0
21.10.2018 08:00:00 13,3 12,4 13,0 12,2 12,2 13,9 16 9 22 12 SW 1027,0 6 0 0,0
21.10.2018 07:00:00 13,2 12,3 12,9 12,0 12,1 13,9 14 7 23 12 SSW 1027,0 4,4 0 0,0
21.10.2018 06:00:00 13,0 11,7 12,7 11,6 12,1 13,9 17 9 22 12 SW 1027,3 21 0 0,0
21.10.2018 05:00:00 12,6 10,9 12,1 11,2 12,1 13,9 10 5 13 7 SW 1027,5 70 0 0,0
21.10.2018 04:00:00 12,4 11,1 11,8 10,8 12,1 13,9 11 6 13 7 WSW 1027,8 58 0 0,0
21.10.2018 03:00:00 12,2 10,4 11,0 10,4 12,2 13,9 9 5 11 6 SW 1028,1 59 0 0,0
21.10.2018 02:00:00 11,3 10,3 9,7 9,9 12,3 13,9 9 5 12 6 S 1028,3 45 0 0,0
21.10.2018 01:00:00 10,7 9,7 8,9 9,9 12,5 13,9 9 5 12 6 S 1028,7 43 0 0,0
21.10.2018 00:00:00 9,9 8,9 8,9 10,1 12,7 13,9 7 4 9 5 S 1028,9 36 0 0,0
20.10.2018 23:00:00 9,1 8,4 7,7 9,7 13,0 13,9 5 3 8 4 S 1028,8 28 0 0,0
20.10.2018 22:00:00 8,6 7,5 5,6 9,9 13,3 13,9 3 2 5 3 SSW 1028,6 31 0 0,0
20.10.2018 21:00:00 9,9 8,4 7,6 10,6 13,6 13,9 4 2 14 8 N 1029,2 36 0 0,0
20.10.2018 20:00:00 11,2 8,8 8,6 11,1 13,9 14,0 11 6 20 11 NW 1029,0 41 0 0,0
20.10.2018 19:00:00 11,8 8,6 10,0 12,3 14,2 14,0 16 8 21 11 NW 1029,0 46 10 0,0
20.10.2018 18:00:00 12,6 8,4 12,2 14,3 14,3 14,0 16 9 25 13 NW 1028,5 44 60 0,0
20.10.2018 17:00:00 13,1 8,8 13,1 15,5 14,3 14,0 19 11 29 16 NW 1028,6 34 23 0,0
20.10.2018 16:00:00 14,2 8,8 16,0 18,2 14,0 14,0 23 12 30 16 NW 1028,7 15 60 0,0
20.10.2018 15:00:00 14,4 9,5 16,2 19,2 13,5 14,0 20 11 30 16 WNW 1028,5 17 60 0,0
20.10.2018 14:00:00 14,8 9,3 18,0 19,6 13,0 14,0 23 12 30 16 NW 1028,6 9 55 0,0
20.10.2018 13:00:00 14,6 10,0 18,3 18,2 12,5 14,0 22 12 29 16 NW 1028,5 25 59 0,0
20.10.2018 12:00:00 14,5 10,1 16,7 16,1 12,1 14,0 21 11 29 16 WNW 1028,1 12 60 0,0
20.10.2018 11:00:00 14,1 10,0 15,8 13,3 12,0 14,1 19 10 32 17 NW 1027,9 18 22 0,0
20.10.2018 10:00:00 13,0 10,5 12,7 11,6 11,9 14,1 21 12 28 15 W 1027,5 26 0 0,0
20.10.2018 09:00:00 12,8 9,5 12,3 11,0 11,9 14,1 17 9 25 13 W 1027,1 47 0 0,0
20.10.2018 08:00:00 12,4 9,6 11,7 11,0 11,9 14,1 19 11 47 25 W 1027,0 27 0 0,0
20.10.2018 07:00:00 11,9 9,0 11,2 10,9 11,9 14,1 36 20 51 28 WSW 1026,5 17 0 0,0
20.10.2018 06:00:00 11,9 8,3 11,3 11,0 11,9 14,1 35 19 48 26 WSW 1026,4 20 0 0,0
20.10.2018 05:00:00 12,1 7,7 11,7 10,7 11,9 14,1 36 20 45 24 WSW 1026,2 56 0 0,0
20.10.2018 04:00:00 12,0 7,4 11,3 10,5 12,0 14,1 29 15 35 19 WSW 1026,2 66 0 0,0
20.10.2018 03:00:00 11,9 5,0 11,1 10,1 12,1 14,1 16 9 22 12 SW 1026,7 70 0 0,0
20.10.2018 02:00:00 11,1 4,6 10,0 9,7 12,2 14,1 10 5 23 12 SSW 1026,6 70 0 0,0
20.10.2018 01:00:00 11,5 4,8 10,5 9,7 12,5 14,2 16 9 22 12 WSW 1026,6 70 0 0,0
20.10.2018 00:00:00 10,1 4,3 7,7 8,8 12,8 14,2 16 8 19 11 W 1026,6 70 0 0,0
19.10.2018 23:00:00 10,7 3,5 6,3 10,8 12,9 14,2 8 5 18 10 W 1026,4 70 0 0,0
19.10.2018 22:00:00 11,5 5,9 11,1 11,5 13,1 14,2 13 7 16 9 SW 1026,8 70 0 0,0
19.10.2018 21:00:00 11,0 5,9 10,4 11,7 13,2 14,2 7 4 18 10 SSW 1026,3 67 0 0,0
19.10.2018 20:00:00 11,1 5,7 10,7 12,2 13,4 14,2 14 8 18 10 WSW 1026,5 70 0 0,0
19.10.2018 19:00:00 11,0 5,3 10,8 12,8 13,5 14,3 8 4 15 8 SW 1025,9 70 0 0,0
19.10.2018 18:00:00 11,2 5,3 11,2 13,8 13,4 14,3 10 5 16 9 SW 1025,6 70 0 0,0
19.10.2018 17:00:00 11,7 5,2 12,3 15,2 13,3 14,3 10 5 14 7 WSW 1025,8 70 0 0,0
19.10.2018 16:00:00 12,1 4,9 13,4 16,3 12,9 14,3 8 4 11 6 W 1026,0 70 0 0,0
19.10.2018 15:00:00 12,5 3,9 14,1 17,4 12,4 14,3 5 3 12 6 WNW 1026,4 70 30 0,0
19.10.2018 14:00:00 12,9 4,4 16,7 16,7 11,8 14,4 8 4 16 8 SW 1026,8 56 9 0,0
19.10.2018 13:00:00 12,8 4,4 15,0 15,4 11,3 14,4 5 3 10 5 WSW 1026,9 63 5 0,0
19.10.2018 12:00:00 11,7 4,7 12,9 13,1 10,9 14,4 7 4 12 6 S 1027,2 70 0 0,0
19.10.2018 11:00:00 11,1 6,0 11,9 11,1 10,7 14,4 8 4 11 6 SSE 1027,2 68 0 0,0
19.10.2018 10:00:00 9,9 6,0 10,0 9,4 10,6 14,4 6 3 10 6 SSE 1027,0 70 0 0,0
19.10.2018 09:00:00 8,2 6,4 7,7 8,1 10,6 14,4 6 3 9 5 SE 1027,0 61 0 0,0
19.10.2018 08:00:00 7,4 6,4 6,7 7,4 10,6 14,4 6 3 9 5 SE 1026,7 54 0 0,0
19.10.2018 07:00:00 6,6 6,1 5,7 6,5 10,8 14,4 6 4 10 5 ESE 1026,6 47 0 0,0
19.10.2018 06:00:00 5,2 4,9 1,7 5,2 11,1 14,4 8 4 9 5 ESE 1026,6 38 0 0,0
19.10.2018 05:00:00 4,5 4,3 -1,5 4,9 11,5 14,4 9 5 10 5 E 1026,6 17 0 0,0
19.10.2018 04:00:00 4,8 4,4 -1,1 5,4 11,9 14,4 7 4 9 5 E 1026,6 27 0 0,0
19.10.2018 03:00:00 5,3 4,8 -0,9 6,0 12,3 14,4 8 4 10 5 E 1026,7 30 0 0,0
19.10.2018 02:00:00 6,5 5,5 -0,3 6,7 12,7 14,4 9 5 10 6 ENE 1027,0 35 0 0,0
19.10.2018 01:00:00 6,7 5,3 0,9 7,6 13,1 14,4 8 4 15 8 ENE 1027,1 37 0 0,0
19.10.2018 00:00:00 8,2 5,7 5,3 8,8 13,5 14,4 11 6 25 14 NE 1027,2 45 0 0,0
18.10.2018 23:00:00 9,5 6,4 7,2 9,4 13,9 14,4 13 7 24 13 NNE 1027,2 41 0 0,0
18.10.2018 22:00:00 10,3 6,2 8,2 10,1 14,3 14,4 17 9 32 18 N 1027,1 52 0 0,0
18.10.2018 21:00:00 10,9 6,0 8,9 10,8 14,7 14,4 24 13 35 19 N 1026,5 55 0 0,0
18.10.2018 20:00:00 11,0 6,6 9,2 11,5 15,1 14,4 24 13 34 18 N 1026,2 55 0 0,0
18.10.2018 19:00:00 11,3 6,6 9,5 12,7 15,4 14,5 24 13 36 20 N 1026,0 57 9 0,0
18.10.2018 18:00:00 12,0 6,8 11,4 14,9 15,6 14,5 20 11 32 17 N 1025,4 46 53 0,0
18.10.2018 17:00:00 13,0 5,9 14,6 18,0 15,5 14,5 19 11 36 19 N 1025,2 25 60 0,0
18.10.2018 16:00:00 13,4 7,1 16,1 19,6 15,3 14,5 21 11 35 19 N 1025,2 34 54 0,0
18.10.2018 15:00:00 14,3 8,0 18,2 20,6 14,8 14,5 24 13 36 19 N 1025,1 11 60 0,0
18.10.2018 14:00:00 13,8 8,0 17,2 20,0 14,3 14,5 24 13 40 22 N 1025,0 12 59 0,0
18.10.2018 13:00:00 14,2 8,6 17,7 18,5 13,9 14,5 29 16 42 23 N 1025,1 11 60 0,0
18.10.2018 12:00:00 13,2 8,7 15,8 16,5 13,7 14,5 31 17 41 22 N 1024,9 10 60 0,0
18.10.2018 11:00:00 12,5 9,2 14,8 14,2 13,6 14,5 22 12 34 19 N 1024,3 23 30 0,0
18.10.2018 10:00:00 11,9 9,1 12,1 12,7 13,7 14,5 19 11 41 22 N 1023,9 35 0 0,0
18.10.2018 09:00:00 12,5 10,7 12,2 12,7 13,7 14,5 31 17 44 24 N 1023,1 29 0 0,0
18.10.2018 08:00:00 13,0 11,9 12,5 12,9 13,7 14,5 29 15 40 21 N 1022,3 25 0 0,0
18.10.2018 07:00:00 13,2 12,5 12,9 13,0 13,7 14,5 22 12 33 18 N 1021,6 19 0 0,0
18.10.2018 06:00:00 13,4 12,6 13,1 12,8 13,7 14,5 17 9 29 16 NNW 1021,4 13 0 0,0
18.10.2018 05:00:00 13,4 12,5 12,7 11,8 13,9 14,5 16 8 25 13 NW 1021,1 16 0 0,0
18.10.2018 04:00:00 13,2 12,2 11,9 12,1 14,0 14,5 18 10 25 13 NW 1021,0 17 0 0,0
18.10.2018 03:00:00 13,6 12,8 12,9 12,5 14,1 14,5 18 10 27 14 NW 1020,9 9 0 0,0
18.10.2018 02:00:00 13,0 12,3 11,9 11,8 14,3 14,5 13 7 15 8 W 1020,9 30 0 0,0
18.10.2018 01:00:00 12,3 11,8 10,2 11,7 14,5 14,5 11 6 12 6 W 1020,7 18 0 0,0
18.10.2018 00:00:00 12,7 12,4 9,7 12,1 14,8 14,5 6 4 8 5 WSW 1020,6 6 0 0,0
17.10.2018 23:00:00 12,9 12,8 9,4 12,6 15,1 14,5 6 3 11 6 W 1020,5 5 0 0,0
17.10.2018 22:00:00 13,2 13,2 9,8 13,5 15,3 14,5 6 4 13 7 W 1020,5 3,6 0 0,0
17.10.2018 21:00:00 13,8 13,3 13,1 14,2 15,5 14,5 10 5 12 7 W 1020,1 3,9 0 0,0
17.10.2018 20:00:00 13,8 12,9 11,2 14,9 15,7 14,5 5 3 10 6 WSW 1019,9 2,6 0 0,0
17.10.2018 19:00:00 14,8 13,6 14,9 16,1 15,7 14,5 9 5 16 9 WNW 1019,5 3,0 0 0,0
17.10.2018 18:00:00 14,9 13,8 15,2 16,9 15,7 14,5 12 7 19 10 WNW 1019,1 2,6 3 0,0
17.10.2018 17:00:00 15,0 13,1 16,0 17,9 15,6 14,5 10 5 14 7 W 1018,9 3,2 10 0,0
17.10.2018 16:00:00 15,2 13,0 16,1 18,4 15,4 14,5 9 5 14 8 WSW 1018,8 3,8 0 0,0
17.10.2018 15:00:00 15,6 12,8 16,8 18,7 15,0 14,6 11 6 20 11 SW 1018,6 5 0 0,0
17.10.2018 14:00:00 15,8 12,4 17,1 19,2 14,6 14,6 16 8 23 13 SSW 1018,5 6 31 0,0
17.10.2018 13:00:00 16,8 12,6 19,4 19,2 14,1 14,6 20 11 28 15 SSW 1018,4 7 57 0,0
17.10.2018 12:00:00 16,3 12,3 16,8 15,8 13,9 14,6 19 10 29 15 S 1018,5 9 27 0,0
17.10.2018 11:00:00 16,4 12,3 16,8 15,4 13,8 14,6 22 12 35 19 S 1018,3 9 36 0,0
17.10.2018 10:00:00 14,5 12,3 13,7 13,0 13,8 14,6 18 10 27 14 SSE 1018,2 6 7 0,0
17.10.2018 09:00:00 14,5 12,3 13,4 12,5 13,9 14,6 17 9 26 14 SSE 1018,0 5 0 0,0
17.10.2018 08:00:00 14,9 12,4 13,4 12,2 14,0 14,6 16 9 28 15 S 1017,8 6 0 0,0
17.10.2018 07:00:00 14,6 12,5 13,1 12,3 14,1 14,6 17 9 26 14 SSE 1017,5 6 0 0,0
17.10.2018 06:00:00 14,7 12,7 13,5 12,6 14,2 14,6 18 10 32 17 SSE 1017,6 5 0 0,0
17.10.2018 05:00:00 14,7 12,9 13,4 12,8 14,3 14,6 16 8 26 14 SSE 1017,6 4,8 0 0,0
17.10.2018 04:00:00 15,7 13,2 14,1 13,2 14,3 14,6 18 10 27 15 S 1017,7 6 0 0,0
17.10.2018 03:00:00 15,2 13,4 13,9 13,1 14,4 14,6 19 10 30 16 S 1017,9 5 0 0,0
17.10.2018 02:00:00 15,2 13,6 13,7 12,9 14,6 14,6 17 9 30 16 S 1018,2 6 0 0,0
17.10.2018 01:00:00 15,1 13,7 13,6 13,0 14,7 14,6 18 10 27 15 SSE 1018,2 3,8 0 0,0
17.10.2018 00:00:00 15,6 14,3 14,0 13,2 14,8 14,6 18 10 29 15 SSE 1018,4 4,5 0 0,0
16.10.2018 23:00:00 15,0 14,2 14,0 13,1 15,1 14,6 16 9 25 13 SSE 1018,6 3,3 0 0,0
16.10.2018 22:00:00 12,7 12,5 11,7 12,8 15,3 14,6 13 7 17 9 SE 1018,7 2,3 0 0,0
16.10.2018 21:00:00 11,6 11,4 11,0 13,0 15,7 14,6 11 6 15 8 ESE 1019,0 1,5 0 0,0
16.10.2018 20:00:00 11,5 11,5 9,5 13,8 15,9 14,6 6 3 9 5 SE 1019,0 1,8 0 0,0
16.10.2018 19:00:00 12,5 12,5 12,6 15,4 16,1 14,6 4 2 6 3 SE 1019,0 0,1 0 0,0
16.10.2018 18:00:00 13,0 13,0 13,6 16,8 16,1 14,6 4 2 12 6 SW 1018,6 0,3 0 0,0
16.10.2018 17:00:00 13,5 13,0 14,5 18,0 16,0 14,6 9 5 21 12 WSW 1018,5 0,6 0 0,0
16.10.2018 16:00:00 15,3 13,8 16,5 19,1 15,8 14,6 15 8 20 11 SW 1018,4 3,9 5 0,0

tt = Température de l'air
td = dewpoint
tt 5cm = Température de l'air 5cm
tt -5cm = Température de l'air -5cm
tt -20cm = Température de l'air -20cm
tt -100cm = Température de l'air -100cm
ff = Vitesse du vent
fx = gusts
dd = Direction du vent
ppp = reduced air pressure
vv = visibility
sd = Ensoleillement
rr = Quantités de précipitations

stations d'obs. à proximité